Index of /20260502/WXO-DD/model_rdps/10km/18/059
Name Last modified Size Description
Parent Directory -
20260502T18Z_MSC_RDPS_AbsoluteVorticity_IsbL-0250_RLatLon0.09_PT059H.grib2 2026-05-02 20:56 497K
20260502T18Z_MSC_RDPS_AbsoluteVorticity_IsbL-0500_RLatLon0.09_PT059H.grib2 2026-05-02 20:56 558K
20260502T18Z_MSC_RDPS_AbsoluteVorticity_IsbL-0700_RLatLon0.09_PT059H.grib2 2026-05-02 20:56 614K
20260502T18Z_MSC_RDPS_AbsoluteVorticity_IsbL-0850_RLatLon0.09_PT059H.grib2 2026-05-02 20:56 750K
20260502T18Z_MSC_RDPS_AirTemp_AGL-120m_RLatLon0.09_PT059H.grib2 2026-05-02 20:56 369K
20260502T18Z_MSC_RDPS_AirTemp_AGL-2m_RLatLon0.09_PT059H.grib2 2026-05-02 20:56 625K
20260502T18Z_MSC_RDPS_AirTemp_AGL-40m_RLatLon0.09_PT059H.grib2 2026-05-02 20:56 382K
20260502T18Z_MSC_RDPS_AirTemp_AGL-80m_RLatLon0.09_PT059H.grib2 2026-05-02 20:56 374K
20260502T18Z_MSC_RDPS_AirTemp_IsbL-0001_RLatLon0.09_PT059H.grib2 2026-05-02 20:56 302K
20260502T18Z_MSC_RDPS_AirTemp_IsbL-0005_RLatLon0.09_PT059H.grib2 2026-05-02 20:56 292K
20260502T18Z_MSC_RDPS_AirTemp_IsbL-0010_RLatLon0.09_PT059H.grib2 2026-05-02 20:56 301K
20260502T18Z_MSC_RDPS_AirTemp_IsbL-0020_RLatLon0.09_PT059H.grib2 2026-05-02 20:56 317K
20260502T18Z_MSC_RDPS_AirTemp_IsbL-0030_RLatLon0.09_PT059H.grib2 2026-05-02 20:56 335K
20260502T18Z_MSC_RDPS_AirTemp_IsbL-0050_RLatLon0.09_PT059H.grib2 2026-05-02 20:56 317K
20260502T18Z_MSC_RDPS_AirTemp_IsbL-0100_RLatLon0.09_PT059H.grib2 2026-05-02 20:56 431K
20260502T18Z_MSC_RDPS_AirTemp_IsbL-0150_RLatLon0.09_PT059H.grib2 2026-05-02 20:56 417K
20260502T18Z_MSC_RDPS_AirTemp_IsbL-0175_RLatLon0.09_PT059H.grib2 2026-05-02 20:56 407K
20260502T18Z_MSC_RDPS_AirTemp_IsbL-0200_RLatLon0.09_PT059H.grib2 2026-05-02 20:56 411K
20260502T18Z_MSC_RDPS_AirTemp_IsbL-0225_RLatLon0.09_PT059H.grib2 2026-05-02 20:56 413K
20260502T18Z_MSC_RDPS_AirTemp_IsbL-0250_RLatLon0.09_PT059H.grib2 2026-05-02 20:56 418K
20260502T18Z_MSC_RDPS_AirTemp_IsbL-0275_RLatLon0.09_PT059H.grib2 2026-05-02 20:56 400K
20260502T18Z_MSC_RDPS_AirTemp_IsbL-0300_RLatLon0.09_PT059H.grib2 2026-05-02 20:56 408K
20260502T18Z_MSC_RDPS_AirTemp_IsbL-0350_RLatLon0.09_PT059H.grib2 2026-05-02 20:56 424K
20260502T18Z_MSC_RDPS_AirTemp_IsbL-0400_RLatLon0.09_PT059H.grib2 2026-05-02 20:56 428K
20260502T18Z_MSC_RDPS_AirTemp_IsbL-0450_RLatLon0.09_PT059H.grib2 2026-05-02 20:56 436K
20260502T18Z_MSC_RDPS_AirTemp_IsbL-0500_RLatLon0.09_PT059H.grib2 2026-05-02 20:56 447K
20260502T18Z_MSC_RDPS_AirTemp_IsbL-0550_RLatLon0.09_PT059H.grib2 2026-05-02 20:56 464K
20260502T18Z_MSC_RDPS_AirTemp_IsbL-0600_RLatLon0.09_PT059H.grib2 2026-05-02 20:56 445K
20260502T18Z_MSC_RDPS_AirTemp_IsbL-0650_RLatLon0.09_PT059H.grib2 2026-05-02 20:56 458K
20260502T18Z_MSC_RDPS_AirTemp_IsbL-0700_RLatLon0.09_PT059H.grib2 2026-05-02 20:56 375K
20260502T18Z_MSC_RDPS_AirTemp_IsbL-0750_RLatLon0.09_PT059H.grib2 2026-05-02 20:56 405K
20260502T18Z_MSC_RDPS_AirTemp_IsbL-0800_RLatLon0.09_PT059H.grib2 2026-05-02 20:56 454K
20260502T18Z_MSC_RDPS_AirTemp_IsbL-0850_RLatLon0.09_PT059H.grib2 2026-05-02 20:56 508K
20260502T18Z_MSC_RDPS_AirTemp_IsbL-0875_RLatLon0.09_PT059H.grib2 2026-05-02 20:56 526K
20260502T18Z_MSC_RDPS_AirTemp_IsbL-0900_RLatLon0.09_PT059H.grib2 2026-05-02 20:56 531K
20260502T18Z_MSC_RDPS_AirTemp_IsbL-0925_RLatLon0.09_PT059H.grib2 2026-05-02 20:56 524K
20260502T18Z_MSC_RDPS_AirTemp_IsbL-0950_RLatLon0.09_PT059H.grib2 2026-05-02 20:56 520K
20260502T18Z_MSC_RDPS_AirTemp_IsbL-0970_RLatLon0.09_PT059H.grib2 2026-05-02 20:56 509K
20260502T18Z_MSC_RDPS_AirTemp_IsbL-0985_RLatLon0.09_PT059H.grib2 2026-05-02 20:56 495K
20260502T18Z_MSC_RDPS_AirTemp_IsbL-1000_RLatLon0.09_PT059H.grib2 2026-05-02 20:56 481K
20260502T18Z_MSC_RDPS_AirTemp_IsbL-1015_RLatLon0.09_PT059H.grib2 2026-05-02 20:56 486K
20260502T18Z_MSC_RDPS_Albedo_Sfc_RLatLon0.09_PT059H.grib2 2026-05-02 20:56 155K
20260502T18Z_MSC_RDPS_CAPE_Sfc_RLatLon0.09_PT059H.grib2 2026-05-02 20:56 1.6M
20260502T18Z_MSC_RDPS_CIN_Sfc_RLatLon0.09_PT059H.grib2 2026-05-02 20:56 1.2M
20260502T18Z_MSC_RDPS_CloudWater_EAtm_RLatLon0.09_PT059H.grib2 2026-05-02 20:56 222K
20260502T18Z_MSC_RDPS_ConvectivePrecip-Accum_Sfc_RLatLon0.09_PT059H.grib2 2026-05-02 20:56 1.2M
20260502T18Z_MSC_RDPS_DewPointDepression_AGL-2m_RLatLon0.09_PT059H.grib2 2026-05-02 20:56 398K
20260502T18Z_MSC_RDPS_DewPointDepression_IsbL-0001_RLatLon0.09_PT059H.grib2 2026-05-02 20:56 193
20260502T18Z_MSC_RDPS_DewPointDepression_IsbL-0005_RLatLon0.09_PT059H.grib2 2026-05-02 20:56 193
20260502T18Z_MSC_RDPS_DewPointDepression_IsbL-0010_RLatLon0.09_PT059H.grib2 2026-05-02 20:56 193
20260502T18Z_MSC_RDPS_DewPointDepression_IsbL-0020_RLatLon0.09_PT059H.grib2 2026-05-02 20:56 193
20260502T18Z_MSC_RDPS_DewPointDepression_IsbL-0030_RLatLon0.09_PT059H.grib2 2026-05-02 20:56 193
20260502T18Z_MSC_RDPS_DewPointDepression_IsbL-0050_RLatLon0.09_PT059H.grib2 2026-05-02 20:56 77K
20260502T18Z_MSC_RDPS_DewPointDepression_IsbL-0100_RLatLon0.09_PT059H.grib2 2026-05-02 20:56 118K
20260502T18Z_MSC_RDPS_DewPointDepression_IsbL-0150_RLatLon0.09_PT059H.grib2 2026-05-02 20:56 147K
20260502T18Z_MSC_RDPS_DewPointDepression_IsbL-0175_RLatLon0.09_PT059H.grib2 2026-05-02 20:56 181K
20260502T18Z_MSC_RDPS_DewPointDepression_IsbL-0200_RLatLon0.09_PT059H.grib2 2026-05-02 20:56 220K
20260502T18Z_MSC_RDPS_DewPointDepression_IsbL-0225_RLatLon0.09_PT059H.grib2 2026-05-02 20:56 255K
20260502T18Z_MSC_RDPS_DewPointDepression_IsbL-0250_RLatLon0.09_PT059H.grib2 2026-05-02 20:56 294K
20260502T18Z_MSC_RDPS_DewPointDepression_IsbL-0275_RLatLon0.09_PT059H.grib2 2026-05-02 20:56 301K
20260502T18Z_MSC_RDPS_DewPointDepression_IsbL-0300_RLatLon0.09_PT059H.grib2 2026-05-02 20:56 318K
20260502T18Z_MSC_RDPS_DewPointDepression_IsbL-0350_RLatLon0.09_PT059H.grib2 2026-05-02 20:56 325K
20260502T18Z_MSC_RDPS_DewPointDepression_IsbL-0400_RLatLon0.09_PT059H.grib2 2026-05-02 20:56 340K
20260502T18Z_MSC_RDPS_DewPointDepression_IsbL-0450_RLatLon0.09_PT059H.grib2 2026-05-02 20:56 343K
20260502T18Z_MSC_RDPS_DewPointDepression_IsbL-0500_RLatLon0.09_PT059H.grib2 2026-05-02 20:56 348K
20260502T18Z_MSC_RDPS_DewPointDepression_IsbL-0550_RLatLon0.09_PT059H.grib2 2026-05-02 20:56 357K
20260502T18Z_MSC_RDPS_DewPointDepression_IsbL-0600_RLatLon0.09_PT059H.grib2 2026-05-02 20:56 366K
20260502T18Z_MSC_RDPS_DewPointDepression_IsbL-0650_RLatLon0.09_PT059H.grib2 2026-05-02 20:56 375K
20260502T18Z_MSC_RDPS_DewPointDepression_IsbL-0700_RLatLon0.09_PT059H.grib2 2026-05-02 20:56 387K
20260502T18Z_MSC_RDPS_DewPointDepression_IsbL-0750_RLatLon0.09_PT059H.grib2 2026-05-02 20:56 405K
20260502T18Z_MSC_RDPS_DewPointDepression_IsbL-0800_RLatLon0.09_PT059H.grib2 2026-05-02 20:56 441K
20260502T18Z_MSC_RDPS_DewPointDepression_IsbL-0850_RLatLon0.09_PT059H.grib2 2026-05-02 20:56 473K
20260502T18Z_MSC_RDPS_DewPointDepression_IsbL-0875_RLatLon0.09_PT059H.grib2 2026-05-02 20:56 472K
20260502T18Z_MSC_RDPS_DewPointDepression_IsbL-0900_RLatLon0.09_PT059H.grib2 2026-05-02 20:56 459K
20260502T18Z_MSC_RDPS_DewPointDepression_IsbL-0925_RLatLon0.09_PT059H.grib2 2026-05-02 20:56 446K
20260502T18Z_MSC_RDPS_DewPointDepression_IsbL-0950_RLatLon0.09_PT059H.grib2 2026-05-02 20:56 439K
20260502T18Z_MSC_RDPS_DewPointDepression_IsbL-0970_RLatLon0.09_PT059H.grib2 2026-05-02 20:56 431K
20260502T18Z_MSC_RDPS_DewPointDepression_IsbL-0985_RLatLon0.09_PT059H.grib2 2026-05-02 20:56 426K
20260502T18Z_MSC_RDPS_DewPointDepression_IsbL-1000_RLatLon0.09_PT059H.grib2 2026-05-02 20:56 420K
20260502T18Z_MSC_RDPS_DewPointDepression_IsbL-1015_RLatLon0.09_PT059H.grib2 2026-05-02 20:56 413K
20260502T18Z_MSC_RDPS_DewPoint_AGL-2m_RLatLon0.09_PT059H.grib2 2026-05-02 20:56 301K
20260502T18Z_MSC_RDPS_DownwardLongwaveRadiationFlux-Accum_Sfc_RLatLon0.09_PT059H.grib2 2026-05-02 20:56 405K
20260502T18Z_MSC_RDPS_DownwardShortwaveRadiationFlux-Accum_NTAtm_RLatLon0.09_PT059H.grib2 2026-05-02 20:56 108K
20260502T18Z_MSC_RDPS_DownwardShortwaveRadiationFlux-Accum_Sfc_RLatLon0.09_PT059H.grib2 2026-05-02 20:56 601K
20260502T18Z_MSC_RDPS_FreezingRain-Accum1h_Sfc_RLatLon0.09_PT059H.grib2 2026-05-02 20:56 33K
20260502T18Z_MSC_RDPS_FreezingRain-Accum_Sfc_RLatLon0.09_PT059H.grib2 2026-05-02 20:56 172K
20260502T18Z_MSC_RDPS_GeopotentialHeight_IsbL-0001_RLatLon0.09_PT059H.grib2 2026-05-02 20:56 238K
20260502T18Z_MSC_RDPS_GeopotentialHeight_IsbL-0005_RLatLon0.09_PT059H.grib2 2026-05-02 20:56 337K
20260502T18Z_MSC_RDPS_GeopotentialHeight_IsbL-0010_RLatLon0.09_PT059H.grib2 2026-05-02 20:56 305K
20260502T18Z_MSC_RDPS_GeopotentialHeight_IsbL-0020_RLatLon0.09_PT059H.grib2 2026-05-02 20:56 401K
20260502T18Z_MSC_RDPS_GeopotentialHeight_IsbL-0030_RLatLon0.09_PT059H.grib2 2026-05-02 20:56 379K
20260502T18Z_MSC_RDPS_GeopotentialHeight_IsbL-0050_RLatLon0.09_PT059H.grib2 2026-05-02 20:56 310K
20260502T18Z_MSC_RDPS_GeopotentialHeight_IsbL-0100_RLatLon0.09_PT059H.grib2 2026-05-02 20:56 287K
20260502T18Z_MSC_RDPS_GeopotentialHeight_IsbL-0150_RLatLon0.09_PT059H.grib2 2026-05-02 20:56 229K
20260502T18Z_MSC_RDPS_GeopotentialHeight_IsbL-0175_RLatLon0.09_PT059H.grib2 2026-05-02 20:56 232K
20260502T18Z_MSC_RDPS_GeopotentialHeight_IsbL-0200_RLatLon0.09_PT059H.grib2 2026-05-02 20:56 234K
20260502T18Z_MSC_RDPS_GeopotentialHeight_IsbL-0225_RLatLon0.09_PT059H.grib2 2026-05-02 20:56 267K
20260502T18Z_MSC_RDPS_GeopotentialHeight_IsbL-0250_RLatLon0.09_PT059H.grib2 2026-05-02 20:56 237K
20260502T18Z_MSC_RDPS_GeopotentialHeight_IsbL-0275_RLatLon0.09_PT059H.grib2 2026-05-02 20:56 236K
20260502T18Z_MSC_RDPS_GeopotentialHeight_IsbL-0300_RLatLon0.09_PT059H.grib2 2026-05-02 20:56 235K
20260502T18Z_MSC_RDPS_GeopotentialHeight_IsbL-0350_RLatLon0.09_PT059H.grib2 2026-05-02 20:56 231K
20260502T18Z_MSC_RDPS_GeopotentialHeight_IsbL-0400_RLatLon0.09_PT059H.grib2 2026-05-02 20:56 228K
20260502T18Z_MSC_RDPS_GeopotentialHeight_IsbL-0450_RLatLon0.09_PT059H.grib2 2026-05-02 20:56 298K
20260502T18Z_MSC_RDPS_GeopotentialHeight_IsbL-0500_RLatLon0.09_PT059H.grib2 2026-05-02 20:56 294K
20260502T18Z_MSC_RDPS_GeopotentialHeight_IsbL-0550_RLatLon0.09_PT059H.grib2 2026-05-02 20:56 291K
20260502T18Z_MSC_RDPS_GeopotentialHeight_IsbL-0600_RLatLon0.09_PT059H.grib2 2026-05-02 20:56 260K
20260502T18Z_MSC_RDPS_GeopotentialHeight_IsbL-0650_RLatLon0.09_PT059H.grib2 2026-05-02 20:56 257K
20260502T18Z_MSC_RDPS_GeopotentialHeight_IsbL-0700_RLatLon0.09_PT059H.grib2 2026-05-02 20:56 255K
20260502T18Z_MSC_RDPS_GeopotentialHeight_IsbL-0750_RLatLon0.09_PT059H.grib2 2026-05-02 20:56 341K
20260502T18Z_MSC_RDPS_GeopotentialHeight_IsbL-0800_RLatLon0.09_PT059H.grib2 2026-05-02 20:56 349K
20260502T18Z_MSC_RDPS_GeopotentialHeight_IsbL-0850_RLatLon0.09_PT059H.grib2 2026-05-02 20:56 274K
20260502T18Z_MSC_RDPS_GeopotentialHeight_IsbL-0875_RLatLon0.09_PT059H.grib2 2026-05-02 20:56 276K
20260502T18Z_MSC_RDPS_GeopotentialHeight_IsbL-0900_RLatLon0.09_PT059H.grib2 2026-05-02 20:56 278K
20260502T18Z_MSC_RDPS_GeopotentialHeight_IsbL-0925_RLatLon0.09_PT059H.grib2 2026-05-02 20:56 280K
20260502T18Z_MSC_RDPS_GeopotentialHeight_IsbL-0950_RLatLon0.09_PT059H.grib2 2026-05-02 20:56 283K
20260502T18Z_MSC_RDPS_GeopotentialHeight_IsbL-0970_RLatLon0.09_PT059H.grib2 2026-05-02 20:56 286K
20260502T18Z_MSC_RDPS_GeopotentialHeight_IsbL-0985_RLatLon0.09_PT059H.grib2 2026-05-02 20:56 292K
20260502T18Z_MSC_RDPS_GeopotentialHeight_IsbL-1000_RLatLon0.09_PT059H.grib2 2026-05-02 20:56 299K
20260502T18Z_MSC_RDPS_GeopotentialHeight_IsbL-1015_RLatLon0.09_PT059H.grib2 2026-05-02 20:56 335K
20260502T18Z_MSC_RDPS_Humidex_Sfc_RLatLon0.09_PT059H.grib2 2026-05-02 20:56 2.4M
20260502T18Z_MSC_RDPS_IcePellets-Accum1h_Sfc_RLatLon0.09_PT059H.grib2 2026-05-02 20:56 7.2K
20260502T18Z_MSC_RDPS_IcePellets-Accum_Sfc_RLatLon0.09_PT059H.grib2 2026-05-02 20:56 27K
20260502T18Z_MSC_RDPS_KIndex_Sfc_RLatLon0.09_PT059H.grib2 2026-05-02 20:56 2.5M
20260502T18Z_MSC_RDPS_LatentHeatNetFlux_Sfc_RLatLon0.09_PT059H.grib2 2026-05-02 20:56 424K
20260502T18Z_MSC_RDPS_LiftedIndex-MU-VT_IsbL-0500_RLatLon0.09_PT059H.grib2 2026-05-02 20:56 2.4M
20260502T18Z_MSC_RDPS_NetLongwaveRadiationFlux-Accum_Sfc_RLatLon0.09_PT059H.grib2 2026-05-02 20:56 586K
20260502T18Z_MSC_RDPS_NetShortwaveRadiationFlux-Accum_Sfc_RLatLon0.09_PT059H.grib2 2026-05-02 20:56 601K
20260502T18Z_MSC_RDPS_PlanetaryBoundaryLayerHeight_Sfc_RLatLon0.09_PT059H.grib2 2026-05-02 20:56 1.1M
20260502T18Z_MSC_RDPS_Precip-Accum1h_Sfc_RLatLon0.09_PT059H.grib2 2026-05-02 20:56 1.2M
20260502T18Z_MSC_RDPS_Precip-Accum_Sfc_RLatLon0.09_PT059H.grib2 2026-05-02 20:56 2.2M
20260502T18Z_MSC_RDPS_PrecipRate_Sfc_RLatLon0.09_PT059H.grib2 2026-05-02 20:56 189K
20260502T18Z_MSC_RDPS_PrecipType-Instant_Sfc_RLatLon0.09_PT059H.grib2 2026-05-02 20:56 583K
20260502T18Z_MSC_RDPS_Pressure-Trend3h_Sfc_RLatLon0.09_PT059H.grib2 2026-05-02 20:56 1.2M
20260502T18Z_MSC_RDPS_Pressure_MSL_RLatLon0.09_PT059H.grib2 2026-05-02 20:56 237K
20260502T18Z_MSC_RDPS_Pressure_PVU-1.5_RLatLon0.09_PT059H.grib2 2026-05-02 20:56 2.5M
20260502T18Z_MSC_RDPS_Pressure_PVU-1_RLatLon0.09_PT059H.grib2 2026-05-02 20:56 2.4M
20260502T18Z_MSC_RDPS_Pressure_PVU-2_RLatLon0.09_PT059H.grib2 2026-05-02 20:56 2.4M
20260502T18Z_MSC_RDPS_Pressure_Sfc_RLatLon0.09_PT059H.grib2 2026-05-02 20:56 497K
20260502T18Z_MSC_RDPS_RadiativeTemp_Sfc_RLatLon0.09_PT059H.grib2 2026-05-02 20:56 300K
20260502T18Z_MSC_RDPS_Rain-Accum1h_Sfc_RLatLon0.09_PT059H.grib2 2026-05-02 20:56 611K
20260502T18Z_MSC_RDPS_Rain-Accum_Sfc_RLatLon0.09_PT059H.grib2 2026-05-02 20:56 1.8M
20260502T18Z_MSC_RDPS_RelativeHumidity_AGL-2m_RLatLon0.09_PT059H.grib2 2026-05-02 20:56 1.0M
20260502T18Z_MSC_RDPS_RelativeHumidity_IsbL-0010_RLatLon0.09_PT059H.grib2 2026-05-02 20:56 692K
20260502T18Z_MSC_RDPS_RelativeHumidity_IsbL-0020_RLatLon0.09_PT059H.grib2 2026-05-02 20:56 657K
20260502T18Z_MSC_RDPS_RelativeHumidity_IsbL-0030_RLatLon0.09_PT059H.grib2 2026-05-02 20:56 599K
20260502T18Z_MSC_RDPS_RelativeHumidity_IsbL-0050_RLatLon0.09_PT059H.grib2 2026-05-02 20:56 360K
20260502T18Z_MSC_RDPS_RelativeHumidity_IsbL-0100_RLatLon0.09_PT059H.grib2 2026-05-02 20:56 284K
20260502T18Z_MSC_RDPS_RelativeHumidity_IsbL-0150_RLatLon0.09_PT059H.grib2 2026-05-02 20:56 418K
20260502T18Z_MSC_RDPS_RelativeHumidity_IsbL-0175_RLatLon0.09_PT059H.grib2 2026-05-02 20:56 480K
20260502T18Z_MSC_RDPS_RelativeHumidity_IsbL-0200_RLatLon0.09_PT059H.grib2 2026-05-02 20:56 557K
20260502T18Z_MSC_RDPS_RelativeHumidity_IsbL-0225_RLatLon0.09_PT059H.grib2 2026-05-02 20:56 622K
20260502T18Z_MSC_RDPS_RelativeHumidity_IsbL-0250_RLatLon0.09_PT059H.grib2 2026-05-02 20:56 679K
20260502T18Z_MSC_RDPS_RelativeHumidity_IsbL-0275_RLatLon0.09_PT059H.grib2 2026-05-02 20:56 698K
20260502T18Z_MSC_RDPS_RelativeHumidity_IsbL-0300_RLatLon0.09_PT059H.grib2 2026-05-02 20:56 737K
20260502T18Z_MSC_RDPS_RelativeHumidity_IsbL-0350_RLatLon0.09_PT059H.grib2 2026-05-02 20:56 761K
20260502T18Z_MSC_RDPS_RelativeHumidity_IsbL-0400_RLatLon0.09_PT059H.grib2 2026-05-02 20:56 782K
20260502T18Z_MSC_RDPS_RelativeHumidity_IsbL-0450_RLatLon0.09_PT059H.grib2 2026-05-02 20:56 789K
20260502T18Z_MSC_RDPS_RelativeHumidity_IsbL-0500_RLatLon0.09_PT059H.grib2 2026-05-02 20:56 791K
20260502T18Z_MSC_RDPS_RelativeHumidity_IsbL-0550_RLatLon0.09_PT059H.grib2 2026-05-02 20:56 807K
20260502T18Z_MSC_RDPS_RelativeHumidity_IsbL-0600_RLatLon0.09_PT059H.grib2 2026-05-02 20:56 839K
20260502T18Z_MSC_RDPS_RelativeHumidity_IsbL-0650_RLatLon0.09_PT059H.grib2 2026-05-02 20:56 854K
20260502T18Z_MSC_RDPS_RelativeHumidity_IsbL-0700_RLatLon0.09_PT059H.grib2 2026-05-02 20:56 879K
20260502T18Z_MSC_RDPS_RelativeHumidity_IsbL-0750_RLatLon0.09_PT059H.grib2 2026-05-02 20:56 909K
20260502T18Z_MSC_RDPS_RelativeHumidity_IsbL-0800_RLatLon0.09_PT059H.grib2 2026-05-02 20:56 1.0M
20260502T18Z_MSC_RDPS_RelativeHumidity_IsbL-0850_RLatLon0.09_PT059H.grib2 2026-05-02 20:56 1.0M
20260502T18Z_MSC_RDPS_RelativeHumidity_IsbL-0875_RLatLon0.09_PT059H.grib2 2026-05-02 20:56 1.1M
20260502T18Z_MSC_RDPS_RelativeHumidity_IsbL-0900_RLatLon0.09_PT059H.grib2 2026-05-02 20:56 1.1M
20260502T18Z_MSC_RDPS_RelativeHumidity_IsbL-0925_RLatLon0.09_PT059H.grib2 2026-05-02 20:56 1.1M
20260502T18Z_MSC_RDPS_RelativeHumidity_IsbL-0950_RLatLon0.09_PT059H.grib2 2026-05-02 20:56 1.1M
20260502T18Z_MSC_RDPS_RelativeHumidity_IsbL-0970_RLatLon0.09_PT059H.grib2 2026-05-02 20:56 1.0M
20260502T18Z_MSC_RDPS_RelativeHumidity_IsbL-0985_RLatLon0.09_PT059H.grib2 2026-05-02 20:56 1.0M
20260502T18Z_MSC_RDPS_RelativeHumidity_IsbL-1000_RLatLon0.09_PT059H.grib2 2026-05-02 20:56 1.0M
20260502T18Z_MSC_RDPS_RelativeHumidity_IsbL-1015_RLatLon0.09_PT059H.grib2 2026-05-02 20:56 1.0M
20260502T18Z_MSC_RDPS_Runoff-Accum_Sfc_RLatLon0.09_PT059H.grib2 2026-05-02 20:56 60K
20260502T18Z_MSC_RDPS_SWEATIndex_Sfc_RLatLon0.09_PT059H.grib2 2026-05-02 20:56 2.4M
20260502T18Z_MSC_RDPS_SeeingIndex_EAtm_RLatLon0.09_PT059H.grib2 2026-05-02 20:56 1.0M
20260502T18Z_MSC_RDPS_SensibleHeatNetFlux_Sfc_RLatLon0.09_PT059H.grib2 2026-05-02 20:56 297K
20260502T18Z_MSC_RDPS_ShowalterIndex_IsbL-0500_RLatLon0.09_PT059H.grib2 2026-05-02 20:56 2.6M
20260502T18Z_MSC_RDPS_SkyTransparencyIndex_EAtm_RLatLon0.09_PT059H.grib2 2026-05-02 20:56 698K
20260502T18Z_MSC_RDPS_Snow-Accum1h_Sfc_RLatLon0.09_PT059H.grib2 2026-05-02 20:56 459K
20260502T18Z_MSC_RDPS_Snow-Accum_Sfc_RLatLon0.09_PT059H.grib2 2026-05-02 20:56 759K
20260502T18Z_MSC_RDPS_SnowDensity_Sfc_RLatLon0.09_PT059H.grib2 2026-05-02 20:56 174K
20260502T18Z_MSC_RDPS_SnowDepth_Sfc_RLatLon0.09_PT059H.grib2 2026-05-02 20:56 655K
20260502T18Z_MSC_RDPS_SoilTemp_DBS-0to10cm_RLatLon0.09_PT059H.grib2 2026-05-02 20:56 246K
20260502T18Z_MSC_RDPS_SoilTemp_Sfc_RLatLon0.09_PT059H.grib2 2026-05-02 20:56 278K
20260502T18Z_MSC_RDPS_SoilVolumetricIceContent_Sfc_RLatLon0.09_PT059H.grib2 2026-05-02 20:56 154K
20260502T18Z_MSC_RDPS_SoilVolumetricWaterContent_DBS-0to10cm_RLatLon0.09_PT059H.grib2 2026-05-02 20:56 277K
20260502T18Z_MSC_RDPS_SoilVolumetricWaterContent_DBS-0to1cm_RLatLon0.09_PT059H.grib2 2026-05-02 20:56 343K
20260502T18Z_MSC_RDPS_SpecificHumidity_AGL-120m_RLatLon0.09_PT059H.grib2 2026-05-02 20:56 484K
20260502T18Z_MSC_RDPS_SpecificHumidity_AGL-2m_RLatLon0.09_PT059H.grib2 2026-05-02 20:56 654K
20260502T18Z_MSC_RDPS_SpecificHumidity_AGL-40m_RLatLon0.09_PT059H.grib2 2026-05-02 20:56 490K
20260502T18Z_MSC_RDPS_SpecificHumidity_AGL-80m_RLatLon0.09_PT059H.grib2 2026-05-02 20:56 485K
20260502T18Z_MSC_RDPS_SpecificHumidity_IsbL-0001_RLatLon0.09_PT059H.grib2 2026-05-02 20:56 357K
20260502T18Z_MSC_RDPS_SpecificHumidity_IsbL-0005_RLatLon0.09_PT059H.grib2 2026-05-02 20:56 365K
20260502T18Z_MSC_RDPS_SpecificHumidity_IsbL-0010_RLatLon0.09_PT059H.grib2 2026-05-02 20:56 398K
20260502T18Z_MSC_RDPS_SpecificHumidity_IsbL-0020_RLatLon0.09_PT059H.grib2 2026-05-02 20:56 377K
20260502T18Z_MSC_RDPS_SpecificHumidity_IsbL-0030_RLatLon0.09_PT059H.grib2 2026-05-02 20:56 371K
20260502T18Z_MSC_RDPS_SpecificHumidity_IsbL-0050_RLatLon0.09_PT059H.grib2 2026-05-02 20:56 451K
20260502T18Z_MSC_RDPS_SpecificHumidity_IsbL-0100_RLatLon0.09_PT059H.grib2 2026-05-02 20:56 421K
20260502T18Z_MSC_RDPS_SpecificHumidity_IsbL-0150_RLatLon0.09_PT059H.grib2 2026-05-02 20:56 454K
20260502T18Z_MSC_RDPS_SpecificHumidity_IsbL-0175_RLatLon0.09_PT059H.grib2 2026-05-02 20:56 443K
20260502T18Z_MSC_RDPS_SpecificHumidity_IsbL-0200_RLatLon0.09_PT059H.grib2 2026-05-02 20:56 461K
20260502T18Z_MSC_RDPS_SpecificHumidity_IsbL-0225_RLatLon0.09_PT059H.grib2 2026-05-02 20:56 461K
20260502T18Z_MSC_RDPS_SpecificHumidity_IsbL-0250_RLatLon0.09_PT059H.grib2 2026-05-02 20:56 560K
20260502T18Z_MSC_RDPS_SpecificHumidity_IsbL-0275_RLatLon0.09_PT059H.grib2 2026-05-02 20:56 472K
20260502T18Z_MSC_RDPS_SpecificHumidity_IsbL-0300_RLatLon0.09_PT059H.grib2 2026-05-02 20:56 541K
20260502T18Z_MSC_RDPS_SpecificHumidity_IsbL-0350_RLatLon0.09_PT059H.grib2 2026-05-02 20:56 537K
20260502T18Z_MSC_RDPS_SpecificHumidity_IsbL-0400_RLatLon0.09_PT059H.grib2 2026-05-02 20:56 521K
20260502T18Z_MSC_RDPS_SpecificHumidity_IsbL-0450_RLatLon0.09_PT059H.grib2 2026-05-02 20:56 573K
20260502T18Z_MSC_RDPS_SpecificHumidity_IsbL-0500_RLatLon0.09_PT059H.grib2 2026-05-02 20:56 505K
20260502T18Z_MSC_RDPS_SpecificHumidity_IsbL-0550_RLatLon0.09_PT059H.grib2 2026-05-02 20:56 576K
20260502T18Z_MSC_RDPS_SpecificHumidity_IsbL-0600_RLatLon0.09_PT059H.grib2 2026-05-02 20:56 626K
20260502T18Z_MSC_RDPS_SpecificHumidity_IsbL-0650_RLatLon0.09_PT059H.grib2 2026-05-02 20:56 545K
20260502T18Z_MSC_RDPS_SpecificHumidity_IsbL-0700_RLatLon0.09_PT059H.grib2 2026-05-02 20:56 591K
20260502T18Z_MSC_RDPS_SpecificHumidity_IsbL-0750_RLatLon0.09_PT059H.grib2 2026-05-02 20:56 644K
20260502T18Z_MSC_RDPS_SpecificHumidity_IsbL-0800_RLatLon0.09_PT059H.grib2 2026-05-02 20:56 724K
20260502T18Z_MSC_RDPS_SpecificHumidity_IsbL-0850_RLatLon0.09_PT059H.grib2 2026-05-02 20:56 803K
20260502T18Z_MSC_RDPS_SpecificHumidity_IsbL-0875_RLatLon0.09_PT059H.grib2 2026-05-02 20:56 830K
20260502T18Z_MSC_RDPS_SpecificHumidity_IsbL-0900_RLatLon0.09_PT059H.grib2 2026-05-02 20:56 840K
20260502T18Z_MSC_RDPS_SpecificHumidity_IsbL-0925_RLatLon0.09_PT059H.grib2 2026-05-02 20:56 841K
20260502T18Z_MSC_RDPS_SpecificHumidity_IsbL-0950_RLatLon0.09_PT059H.grib2 2026-05-02 20:56 700K
20260502T18Z_MSC_RDPS_SpecificHumidity_IsbL-0970_RLatLon0.09_PT059H.grib2 2026-05-02 20:56 691K
20260502T18Z_MSC_RDPS_SpecificHumidity_IsbL-0985_RLatLon0.09_PT059H.grib2 2026-05-02 20:56 683K
20260502T18Z_MSC_RDPS_SpecificHumidity_IsbL-1000_RLatLon0.09_PT059H.grib2 2026-05-02 20:56 675K
20260502T18Z_MSC_RDPS_SpecificHumidity_IsbL-1015_RLatLon0.09_PT059H.grib2 2026-05-02 20:56 667K
20260502T18Z_MSC_RDPS_SpecificHumidity_Sfc_RLatLon0.09_PT059H.grib2 2026-05-02 20:56 299K
20260502T18Z_MSC_RDPS_StormRelativeHelicity_EtaL-10000_RLatLon0.09_PT059H.grib2 2026-05-02 20:56 1.1M
20260502T18Z_MSC_RDPS_StormSeverityIndex_EtaL-10000_RLatLon0.09_PT059H.grib2 2026-05-02 20:56 1.2M
20260502T18Z_MSC_RDPS_Thickness_IsbL-0850to0700_RLatLon0.09_PT059H.grib2 2026-05-02 20:56 177K
20260502T18Z_MSC_RDPS_Thickness_IsbL-1000to0500_RLatLon0.09_PT059H.grib2 2026-05-02 20:56 198K
20260502T18Z_MSC_RDPS_Thickness_IsbL-1000to0850_RLatLon0.09_PT059H.grib2 2026-05-02 20:56 259K
20260502T18Z_MSC_RDPS_TotalCloudCover_Sfc_RLatLon0.09_PT059H.grib2 2026-05-02 20:56 664K
20260502T18Z_MSC_RDPS_TotalTotalsIndex_Sfc_RLatLon0.09_PT059H.grib2 2026-05-02 20:56 2.4M
20260502T18Z_MSC_RDPS_UVIndex-ClearSky_Sfc_RLatLon0.09_PT059H.grib2 2026-05-02 20:56 105K
20260502T18Z_MSC_RDPS_UVIndex_Sfc_RLatLon0.09_PT059H.grib2 2026-05-02 20:56 181K
20260502T18Z_MSC_RDPS_UpwardLongwaveRadiationFlux_NTAtm_RLatLon0.09_PT059H.grib2 2026-05-02 20:56 485K
20260502T18Z_MSC_RDPS_UpwardShortwaveRadiationFlux_NTAtm_RLatLon0.09_PT059H.grib2 2026-05-02 20:56 149K
20260502T18Z_MSC_RDPS_VerticalVelocity_IsbL-0250_RLatLon0.09_PT059H.grib2 2026-05-02 20:56 434K
20260502T18Z_MSC_RDPS_VerticalVelocity_IsbL-0500_RLatLon0.09_PT059H.grib2 2026-05-02 20:56 546K
20260502T18Z_MSC_RDPS_VerticalVelocity_IsbL-0700_RLatLon0.09_PT059H.grib2 2026-05-02 20:56 597K
20260502T18Z_MSC_RDPS_VerticalVelocity_IsbL-0850_RLatLon0.09_PT059H.grib2 2026-05-02 20:56 702K
20260502T18Z_MSC_RDPS_VerticalWindShear_EtaL-6500_RLatLon0.09_PT059H.grib2 2026-05-02 20:56 1.2M
20260502T18Z_MSC_RDPS_WindChill_Sfc_RLatLon0.09_PT059H.grib2 2026-05-02 20:56 1.1M
20260502T18Z_MSC_RDPS_WindDir_AGL-10m_RLatLon0.09_PT059H.grib2 2026-05-02 20:56 951K
20260502T18Z_MSC_RDPS_WindDir_AGL-120m_RLatLon0.09_PT059H.grib2 2026-05-02 20:56 585K
20260502T18Z_MSC_RDPS_WindDir_AGL-40m_RLatLon0.09_PT059H.grib2 2026-05-02 20:56 618K
20260502T18Z_MSC_RDPS_WindDir_AGL-80m_RLatLon0.09_PT059H.grib2 2026-05-02 20:56 598K
20260502T18Z_MSC_RDPS_WindDir_IsbL-0001_RLatLon0.09_PT059H.grib2 2026-05-02 20:56 312K
20260502T18Z_MSC_RDPS_WindDir_IsbL-0005_RLatLon0.09_PT059H.grib2 2026-05-02 20:56 389K
20260502T18Z_MSC_RDPS_WindDir_IsbL-0010_RLatLon0.09_PT059H.grib2 2026-05-02 20:56 394K
20260502T18Z_MSC_RDPS_WindDir_IsbL-0020_RLatLon0.09_PT059H.grib2 2026-05-02 20:56 417K
20260502T18Z_MSC_RDPS_WindDir_IsbL-0030_RLatLon0.09_PT059H.grib2 2026-05-02 20:56 428K
20260502T18Z_MSC_RDPS_WindDir_IsbL-0050_RLatLon0.09_PT059H.grib2 2026-05-02 20:56 423K
20260502T18Z_MSC_RDPS_WindDir_IsbL-0100_RLatLon0.09_PT059H.grib2 2026-05-02 20:56 420K
20260502T18Z_MSC_RDPS_WindDir_IsbL-0150_RLatLon0.09_PT059H.grib2 2026-05-02 20:56 407K
20260502T18Z_MSC_RDPS_WindDir_IsbL-0175_RLatLon0.09_PT059H.grib2 2026-05-02 20:56 430K
20260502T18Z_MSC_RDPS_WindDir_IsbL-0200_RLatLon0.09_PT059H.grib2 2026-05-02 20:56 446K
20260502T18Z_MSC_RDPS_WindDir_IsbL-0225_RLatLon0.09_PT059H.grib2 2026-05-02 20:56 453K
20260502T18Z_MSC_RDPS_WindDir_IsbL-0250_RLatLon0.09_PT059H.grib2 2026-05-02 20:56 449K
20260502T18Z_MSC_RDPS_WindDir_IsbL-0275_RLatLon0.09_PT059H.grib2 2026-05-02 20:56 466K
20260502T18Z_MSC_RDPS_WindDir_IsbL-0300_RLatLon0.09_PT059H.grib2 2026-05-02 20:56 468K
20260502T18Z_MSC_RDPS_WindDir_IsbL-0350_RLatLon0.09_PT059H.grib2 2026-05-02 20:56 491K
20260502T18Z_MSC_RDPS_WindDir_IsbL-0400_RLatLon0.09_PT059H.grib2 2026-05-02 20:56 512K
20260502T18Z_MSC_RDPS_WindDir_IsbL-0450_RLatLon0.09_PT059H.grib2 2026-05-02 20:56 528K
20260502T18Z_MSC_RDPS_WindDir_IsbL-0500_RLatLon0.09_PT059H.grib2 2026-05-02 20:56 535K
20260502T18Z_MSC_RDPS_WindDir_IsbL-0550_RLatLon0.09_PT059H.grib2 2026-05-02 20:56 546K
20260502T18Z_MSC_RDPS_WindDir_IsbL-0600_RLatLon0.09_PT059H.grib2 2026-05-02 20:56 568K
20260502T18Z_MSC_RDPS_WindDir_IsbL-0650_RLatLon0.09_PT059H.grib2 2026-05-02 20:56 610K
20260502T18Z_MSC_RDPS_WindDir_IsbL-0700_RLatLon0.09_PT059H.grib2 2026-05-02 20:56 651K
20260502T18Z_MSC_RDPS_WindDir_IsbL-0750_RLatLon0.09_PT059H.grib2 2026-05-02 20:56 701K
20260502T18Z_MSC_RDPS_WindDir_IsbL-0800_RLatLon0.09_PT059H.grib2 2026-05-02 20:56 771K
20260502T18Z_MSC_RDPS_WindDir_IsbL-0850_RLatLon0.09_PT059H.grib2 2026-05-02 20:56 856K
20260502T18Z_MSC_RDPS_WindDir_IsbL-0875_RLatLon0.09_PT059H.grib2 2026-05-02 20:56 888K
20260502T18Z_MSC_RDPS_WindDir_IsbL-0900_RLatLon0.09_PT059H.grib2 2026-05-02 20:56 901K
20260502T18Z_MSC_RDPS_WindDir_IsbL-0925_RLatLon0.09_PT059H.grib2 2026-05-02 20:56 904K
20260502T18Z_MSC_RDPS_WindDir_IsbL-0950_RLatLon0.09_PT059H.grib2 2026-05-02 20:56 896K
20260502T18Z_MSC_RDPS_WindDir_IsbL-0970_RLatLon0.09_PT059H.grib2 2026-05-02 20:56 901K
20260502T18Z_MSC_RDPS_WindDir_IsbL-0985_RLatLon0.09_PT059H.grib2 2026-05-02 20:56 908K
20260502T18Z_MSC_RDPS_WindDir_IsbL-1000_RLatLon0.09_PT059H.grib2 2026-05-02 20:56 923K
20260502T18Z_MSC_RDPS_WindDir_IsbL-1015_RLatLon0.09_PT059H.grib2 2026-05-02 20:56 940K
20260502T18Z_MSC_RDPS_WindGust-Max_AGL-10m_RLatLon0.09_PT059H.grib2 2026-05-02 20:56 967K
20260502T18Z_MSC_RDPS_WindGust-Min_AGL-10m_RLatLon0.09_PT059H.grib2 2026-05-02 20:56 1.0M
20260502T18Z_MSC_RDPS_WindGust_AGL-10m_RLatLon0.09_PT059H.grib2 2026-05-02 20:56 1.0M
20260502T18Z_MSC_RDPS_WindSpeed_AGL-10m_RLatLon0.09_PT059H.grib2 2026-05-02 20:56 847K
20260502T18Z_MSC_RDPS_WindSpeed_AGL-120m_RLatLon0.09_PT059H.grib2 2026-05-02 20:56 540K
20260502T18Z_MSC_RDPS_WindSpeed_AGL-40m_RLatLon0.09_PT059H.grib2 2026-05-02 20:56 546K
20260502T18Z_MSC_RDPS_WindSpeed_AGL-80m_RLatLon0.09_PT059H.grib2 2026-05-02 20:56 542K
20260502T18Z_MSC_RDPS_WindSpeed_IsbL-0001_RLatLon0.09_PT059H.grib2 2026-05-02 20:56 337K
20260502T18Z_MSC_RDPS_WindSpeed_IsbL-0005_RLatLon0.09_PT059H.grib2 2026-05-02 20:56 387K
20260502T18Z_MSC_RDPS_WindSpeed_IsbL-0010_RLatLon0.09_PT059H.grib2 2026-05-02 20:56 366K
20260502T18Z_MSC_RDPS_WindSpeed_IsbL-0020_RLatLon0.09_PT059H.grib2 2026-05-02 20:56 418K
20260502T18Z_MSC_RDPS_WindSpeed_IsbL-0030_RLatLon0.09_PT059H.grib2 2026-05-02 20:56 320K
20260502T18Z_MSC_RDPS_WindSpeed_IsbL-0050_RLatLon0.09_PT059H.grib2 2026-05-02 20:56 354K
20260502T18Z_MSC_RDPS_WindSpeed_IsbL-0100_RLatLon0.09_PT059H.grib2 2026-05-02 20:56 482K
20260502T18Z_MSC_RDPS_WindSpeed_IsbL-0150_RLatLon0.09_PT059H.grib2 2026-05-02 20:56 382K
20260502T18Z_MSC_RDPS_WindSpeed_IsbL-0175_RLatLon0.09_PT059H.grib2 2026-05-02 20:56 406K
20260502T18Z_MSC_RDPS_WindSpeed_IsbL-0200_RLatLon0.09_PT059H.grib2 2026-05-02 20:56 440K
20260502T18Z_MSC_RDPS_WindSpeed_IsbL-0225_RLatLon0.09_PT059H.grib2 2026-05-02 20:56 446K
20260502T18Z_MSC_RDPS_WindSpeed_IsbL-0250_RLatLon0.09_PT059H.grib2 2026-05-02 20:56 449K
20260502T18Z_MSC_RDPS_WindSpeed_IsbL-0275_RLatLon0.09_PT059H.grib2 2026-05-02 20:56 464K
20260502T18Z_MSC_RDPS_WindSpeed_IsbL-0300_RLatLon0.09_PT059H.grib2 2026-05-02 20:56 462K
20260502T18Z_MSC_RDPS_WindSpeed_IsbL-0350_RLatLon0.09_PT059H.grib2 2026-05-02 20:56 473K
20260502T18Z_MSC_RDPS_WindSpeed_IsbL-0400_RLatLon0.09_PT059H.grib2 2026-05-02 20:56 478K
20260502T18Z_MSC_RDPS_WindSpeed_IsbL-0450_RLatLon0.09_PT059H.grib2 2026-05-02 20:56 480K
20260502T18Z_MSC_RDPS_WindSpeed_IsbL-0500_RLatLon0.09_PT059H.grib2 2026-05-02 20:56 465K
20260502T18Z_MSC_RDPS_WindSpeed_IsbL-0550_RLatLon0.09_PT059H.grib2 2026-05-02 20:56 583K
20260502T18Z_MSC_RDPS_WindSpeed_IsbL-0600_RLatLon0.09_PT059H.grib2 2026-05-02 20:56 591K
20260502T18Z_MSC_RDPS_WindSpeed_IsbL-0650_RLatLon0.09_PT059H.grib2 2026-05-02 20:56 610K
20260502T18Z_MSC_RDPS_WindSpeed_IsbL-0700_RLatLon0.09_PT059H.grib2 2026-05-02 20:56 630K
20260502T18Z_MSC_RDPS_WindSpeed_IsbL-0750_RLatLon0.09_PT059H.grib2 2026-05-02 20:56 657K
20260502T18Z_MSC_RDPS_WindSpeed_IsbL-0800_RLatLon0.09_PT059H.grib2 2026-05-02 20:56 752K
20260502T18Z_MSC_RDPS_WindSpeed_IsbL-0850_RLatLon0.09_PT059H.grib2 2026-05-02 20:56 823K
20260502T18Z_MSC_RDPS_WindSpeed_IsbL-0875_RLatLon0.09_PT059H.grib2 2026-05-02 20:56 849K
20260502T18Z_MSC_RDPS_WindSpeed_IsbL-0900_RLatLon0.09_PT059H.grib2 2026-05-02 20:56 865K
20260502T18Z_MSC_RDPS_WindSpeed_IsbL-0925_RLatLon0.09_PT059H.grib2 2026-05-02 20:56 876K
20260502T18Z_MSC_RDPS_WindSpeed_IsbL-0950_RLatLon0.09_PT059H.grib2 2026-05-02 20:56 876K
20260502T18Z_MSC_RDPS_WindSpeed_IsbL-0970_RLatLon0.09_PT059H.grib2 2026-05-02 20:56 874K
20260502T18Z_MSC_RDPS_WindSpeed_IsbL-0985_RLatLon0.09_PT059H.grib2 2026-05-02 20:56 863K
20260502T18Z_MSC_RDPS_WindSpeed_IsbL-1000_RLatLon0.09_PT059H.grib2 2026-05-02 20:56 855K
20260502T18Z_MSC_RDPS_WindSpeed_IsbL-1015_RLatLon0.09_PT059H.grib2 2026-05-02 20:56 847K
20260502T18Z_MSC_RDPS_WindU_AGL-10m_RLatLon0.09_PT059H.grib2 2026-05-02 20:56 432K
20260502T18Z_MSC_RDPS_WindU_AGL-120m_RLatLon0.09_PT059H.grib2 2026-05-02 20:56 534K
20260502T18Z_MSC_RDPS_WindU_AGL-40m_RLatLon0.09_PT059H.grib2 2026-05-02 20:56 538K
20260502T18Z_MSC_RDPS_WindU_AGL-80m_RLatLon0.09_PT059H.grib2 2026-05-02 20:56 536K
20260502T18Z_MSC_RDPS_WindU_IsbL-0001_RLatLon0.09_PT059H.grib2 2026-05-02 20:56 247K
20260502T18Z_MSC_RDPS_WindU_IsbL-0005_RLatLon0.09_PT059H.grib2 2026-05-02 20:56 286K
20260502T18Z_MSC_RDPS_WindU_IsbL-0010_RLatLon0.09_PT059H.grib2 2026-05-02 20:56 298K
20260502T18Z_MSC_RDPS_WindU_IsbL-0020_RLatLon0.09_PT059H.grib2 2026-05-02 20:56 313K
20260502T18Z_MSC_RDPS_WindU_IsbL-0030_RLatLon0.09_PT059H.grib2 2026-05-02 20:56 313K
20260502T18Z_MSC_RDPS_WindU_IsbL-0050_RLatLon0.09_PT059H.grib2 2026-05-02 20:56 383K
20260502T18Z_MSC_RDPS_WindU_IsbL-0100_RLatLon0.09_PT059H.grib2 2026-05-02 20:56 339K
20260502T18Z_MSC_RDPS_WindU_IsbL-0150_RLatLon0.09_PT059H.grib2 2026-05-02 20:56 398K
20260502T18Z_MSC_RDPS_WindU_IsbL-0175_RLatLon0.09_PT059H.grib2 2026-05-02 20:56 420K
20260502T18Z_MSC_RDPS_WindU_IsbL-0200_RLatLon0.09_PT059H.grib2 2026-05-02 20:56 336K
20260502T18Z_MSC_RDPS_WindU_IsbL-0225_RLatLon0.09_PT059H.grib2 2026-05-02 20:56 340K
20260502T18Z_MSC_RDPS_WindU_IsbL-0250_RLatLon0.09_PT059H.grib2 2026-05-02 20:56 341K
20260502T18Z_MSC_RDPS_WindU_IsbL-0275_RLatLon0.09_PT059H.grib2 2026-05-02 20:56 354K
20260502T18Z_MSC_RDPS_WindU_IsbL-0300_RLatLon0.09_PT059H.grib2 2026-05-02 20:56 350K
20260502T18Z_MSC_RDPS_WindU_IsbL-0350_RLatLon0.09_PT059H.grib2 2026-05-02 20:56 360K
20260502T18Z_MSC_RDPS_WindU_IsbL-0400_RLatLon0.09_PT059H.grib2 2026-05-02 20:56 363K
20260502T18Z_MSC_RDPS_WindU_IsbL-0450_RLatLon0.09_PT059H.grib2 2026-05-02 20:56 468K
20260502T18Z_MSC_RDPS_WindU_IsbL-0500_RLatLon0.09_PT059H.grib2 2026-05-02 20:56 471K
20260502T18Z_MSC_RDPS_WindU_IsbL-0550_RLatLon0.09_PT059H.grib2 2026-05-02 20:56 473K
20260502T18Z_MSC_RDPS_WindU_IsbL-0600_RLatLon0.09_PT059H.grib2 2026-05-02 20:56 481K
20260502T18Z_MSC_RDPS_WindU_IsbL-0650_RLatLon0.09_PT059H.grib2 2026-05-02 20:56 499K
20260502T18Z_MSC_RDPS_WindU_IsbL-0700_RLatLon0.09_PT059H.grib2 2026-05-02 20:56 516K
20260502T18Z_MSC_RDPS_WindU_IsbL-0750_RLatLon0.09_PT059H.grib2 2026-05-02 20:56 524K
20260502T18Z_MSC_RDPS_WindU_IsbL-0800_RLatLon0.09_PT059H.grib2 2026-05-02 20:56 581K
20260502T18Z_MSC_RDPS_WindU_IsbL-0850_RLatLon0.09_PT059H.grib2 2026-05-02 20:56 639K
20260502T18Z_MSC_RDPS_WindU_IsbL-0875_RLatLon0.09_PT059H.grib2 2026-05-02 20:56 660K
20260502T18Z_MSC_RDPS_WindU_IsbL-0900_RLatLon0.09_PT059H.grib2 2026-05-02 20:56 670K
20260502T18Z_MSC_RDPS_WindU_IsbL-0925_RLatLon0.09_PT059H.grib2 2026-05-02 20:56 674K
20260502T18Z_MSC_RDPS_WindU_IsbL-0950_RLatLon0.09_PT059H.grib2 2026-05-02 20:56 663K
20260502T18Z_MSC_RDPS_WindU_IsbL-0970_RLatLon0.09_PT059H.grib2 2026-05-02 20:56 659K
20260502T18Z_MSC_RDPS_WindU_IsbL-0985_RLatLon0.09_PT059H.grib2 2026-05-02 20:56 652K
20260502T18Z_MSC_RDPS_WindU_IsbL-1000_RLatLon0.09_PT059H.grib2 2026-05-02 20:56 786K
20260502T18Z_MSC_RDPS_WindU_IsbL-1015_RLatLon0.09_PT059H.grib2 2026-05-02 20:56 827K
20260502T18Z_MSC_RDPS_WindV_AGL-10m_RLatLon0.09_PT059H.grib2 2026-05-02 20:56 435K
20260502T18Z_MSC_RDPS_WindV_AGL-120m_RLatLon0.09_PT059H.grib2 2026-05-02 20:56 536K
20260502T18Z_MSC_RDPS_WindV_AGL-40m_RLatLon0.09_PT059H.grib2 2026-05-02 20:56 541K
20260502T18Z_MSC_RDPS_WindV_AGL-80m_RLatLon0.09_PT059H.grib2 2026-05-02 20:56 538K
20260502T18Z_MSC_RDPS_WindV_IsbL-0001_RLatLon0.09_PT059H.grib2 2026-05-02 20:56 250K
20260502T18Z_MSC_RDPS_WindV_IsbL-0005_RLatLon0.09_PT059H.grib2 2026-05-02 20:56 290K
20260502T18Z_MSC_RDPS_WindV_IsbL-0010_RLatLon0.09_PT059H.grib2 2026-05-02 20:56 301K
20260502T18Z_MSC_RDPS_WindV_IsbL-0020_RLatLon0.09_PT059H.grib2 2026-05-02 20:56 316K
20260502T18Z_MSC_RDPS_WindV_IsbL-0030_RLatLon0.09_PT059H.grib2 2026-05-02 20:56 353K
20260502T18Z_MSC_RDPS_WindV_IsbL-0050_RLatLon0.09_PT059H.grib2 2026-05-02 20:56 348K
20260502T18Z_MSC_RDPS_WindV_IsbL-0100_RLatLon0.09_PT059H.grib2 2026-05-02 20:56 338K
20260502T18Z_MSC_RDPS_WindV_IsbL-0150_RLatLon0.09_PT059H.grib2 2026-05-02 20:56 395K
20260502T18Z_MSC_RDPS_WindV_IsbL-0175_RLatLon0.09_PT059H.grib2 2026-05-02 20:56 323K
20260502T18Z_MSC_RDPS_WindV_IsbL-0200_RLatLon0.09_PT059H.grib2 2026-05-02 20:56 360K
20260502T18Z_MSC_RDPS_WindV_IsbL-0225_RLatLon0.09_PT059H.grib2 2026-05-02 20:56 364K
20260502T18Z_MSC_RDPS_WindV_IsbL-0250_RLatLon0.09_PT059H.grib2 2026-05-02 20:56 367K
20260502T18Z_MSC_RDPS_WindV_IsbL-0275_RLatLon0.09_PT059H.grib2 2026-05-02 20:56 378K
20260502T18Z_MSC_RDPS_WindV_IsbL-0300_RLatLon0.09_PT059H.grib2 2026-05-02 20:56 375K
20260502T18Z_MSC_RDPS_WindV_IsbL-0350_RLatLon0.09_PT059H.grib2 2026-05-02 20:56 382K
20260502T18Z_MSC_RDPS_WindV_IsbL-0400_RLatLon0.09_PT059H.grib2 2026-05-02 20:56 363K
20260502T18Z_MSC_RDPS_WindV_IsbL-0450_RLatLon0.09_PT059H.grib2 2026-05-02 20:56 364K
20260502T18Z_MSC_RDPS_WindV_IsbL-0500_RLatLon0.09_PT059H.grib2 2026-05-02 20:56 365K
20260502T18Z_MSC_RDPS_WindV_IsbL-0550_RLatLon0.09_PT059H.grib2 2026-05-02 20:56 469K
20260502T18Z_MSC_RDPS_WindV_IsbL-0600_RLatLon0.09_PT059H.grib2 2026-05-02 20:56 477K
20260502T18Z_MSC_RDPS_WindV_IsbL-0650_RLatLon0.09_PT059H.grib2 2026-05-02 20:56 494K
20260502T18Z_MSC_RDPS_WindV_IsbL-0700_RLatLon0.09_PT059H.grib2 2026-05-02 20:56 511K
20260502T18Z_MSC_RDPS_WindV_IsbL-0750_RLatLon0.09_PT059H.grib2 2026-05-02 20:56 533K
20260502T18Z_MSC_RDPS_WindV_IsbL-0800_RLatLon0.09_PT059H.grib2 2026-05-02 20:56 564K
20260502T18Z_MSC_RDPS_WindV_IsbL-0850_RLatLon0.09_PT059H.grib2 2026-05-02 20:56 626K
20260502T18Z_MSC_RDPS_WindV_IsbL-0875_RLatLon0.09_PT059H.grib2 2026-05-02 20:56 650K
20260502T18Z_MSC_RDPS_WindV_IsbL-0900_RLatLon0.09_PT059H.grib2 2026-05-02 20:56 661K
20260502T18Z_MSC_RDPS_WindV_IsbL-0925_RLatLon0.09_PT059H.grib2 2026-05-02 20:56 669K
20260502T18Z_MSC_RDPS_WindV_IsbL-0950_RLatLon0.09_PT059H.grib2 2026-05-02 20:56 665K
20260502T18Z_MSC_RDPS_WindV_IsbL-0970_RLatLon0.09_PT059H.grib2 2026-05-02 20:56 662K
20260502T18Z_MSC_RDPS_WindV_IsbL-0985_RLatLon0.09_PT059H.grib2 2026-05-02 20:56 796K
20260502T18Z_MSC_RDPS_WindV_IsbL-1000_RLatLon0.09_PT059H.grib2 2026-05-02 20:56 790K
20260502T18Z_MSC_RDPS_WindV_IsbL-1015_RLatLon0.09_PT059H.grib2 2026-05-02 20:56 784K